www.pogodaiklimat.ru

Погода и климат >> Архив погоды >> Южная Африка >> Малмсбери


ПОГОДА в Малмсбери

  • Прогноз погоды в Малмсбери
  • Монитор погоды в Малмсбери

АРХИВ ПОГОДЫ в Малмсбери

Время (UTC), дата Ветер
(напр.,м/с)
 
Видим.   Явления Облачность Т
(С)
Тd
(С)
f
(%)
Тe
(С)
Тes
(С)
Комфортность P
(гПа)
Po
(гПа)
Тmin
(С)
Tmax
(С)
R
(мм)
R24
(мм)
S
(см)
09 17.06 штиль 0 н/о н/о +15.5 +6.5 55 +15 +15 1010.2 +2.7 +15.6
12 17.06 ЮЗ 2 н/о н/о +19.1 +7.3 46 +20 +20 1008.8 +2.7 +19.1
15 17.06 штиль 0 н/о н/о +17.3 +10.9 66 +17 +17 1009.4 +17.3 +19.1
18 17.06 штиль 0 н/о н/о +7.3 +5.4 88 +6 +6 1010.4 +7.3 +19.1
21 17.06 СВ 2 н/о н/о +7.0 +5.9 93 +5 +5 1011.1 +5.5 +19.1
00 18.06 С 1 н/о н/о +5.0 +3.9 93 +4 +4 1011.4 +4.2 +19.1
03 18.06 СВ 1 н/о н/о +3.5 +2.6 94 +2 +2 1010.5 +3.1 +19.1
06 18.06 СВ 2 н/о н/о +5.3 +3.4 88 +3 +3 1009.8 +3.1
09 18.06 С 1 н/о н/о +19.7 +8.5 48 +22 +22 комфорт 1010.5 +3.1 +19.7
12 18.06 СВ 2 н/о н/о +27.4 +5.9 25 +26 +26 жарко 1007.9 +3.1 +27.5
15 18.06 С 1 н/о н/о +22.3 +10.2 46 +24 +24 комфорт 1007.6 +22.3 +27.8
18 18.06 СВ 1 н/о н/о +12.1 +7.8 75 +12 +12 1008.7 +12.1 +27.8
21 18.06 штиль 0 н/о н/о +8.9 +6.1 83 +8 +8 1009.1 +8.9 +27.8
00 19.06 СВ 2 н/о н/о +9.0 +6.2 83 +7 +7 1009.0 +7.5 +27.8
03 19.06 СВ 2 н/о н/о +9.2 +5.7 79 +8 +8 1008.7 +7.4 +27.8
06 19.06 штиль 0 н/о н/о +5.6 +3.9 89 +5 +5 1010.1 +5.6
09 19.06 штиль 0 н/о н/о +19.9 +8.0 46 +21 +21 комфорт 1010.7 +5.6 +19.9
12 19.06 СЗ 2 н/о н/о +23.9 +6.4 32 +24 +24 комфорт 1009.4 +5.6 +23.9
15 19.06 штиль 0 н/о н/о +21.1 +8.5 44 +22 +22 комфорт 1008.8 +21.1 +25.1
18 19.06 штиль 0 н/о н/о +10.6 +7.3 80 +10 +10 1010.4 +10.6 +25.1
21 19.06 СВ 1 н/о н/о +8.6 +6.9 89 +8 +8 1011.3 +8.0 +25.1
00 20.06 СВ 1 н/о н/о +6.3 +4.9 91 +5 +5 1011.2 +6.1 +25.1
03 20.06 СВ 2 н/о н/о +6.5 +4.6 88 +5 +5 1010.3 +5.6 +25.1
06 20.06 СВ 1 н/о н/о +6.1 +3.7 85 +5 +5 1009.8 +5.6
09 20.06 СВ 2 н/о н/о +17.9 +9.1 56 +19 +19 1009.5 +5.6 +17.9
12 20.06 С 3 н/о н/о +27.2 +5.7 25 +26 +26 жарко 1006.7 +5.6 +27.2
15 20.06 штиль 0 н/о н/о +23.4 +9.2 40 +25 +25 комфорт 1005.3 +23.4 +27.9
18 20.06 штиль 0 н/о н/о +11.2 +6.1 71 +11 +11 1005.4 +11.2 +27.9
21 20.06 СВ 2 н/о н/о +9.8 +7.0 83 +8 +8 1005.2 +8.0 +27.9
00 21.06 СВ 1 н/о н/о +6.3 +4.4 88 +5 +5 1005.1 +6.2 +27.9
03 21.06 С 2 н/о н/о +7.1 +3.5 78 +6 +6 1003.3 +5.4 +27.9
06 21.06 С 1 н/о н/о +4.9 +2.9 87 +4 +4 1003.4 +4.7
09 21.06 С 2 н/о н/о +17.5 +2.3 36 +18 +18 1003.3 +4.7 +17.5
12 21.06 СЗ 5 н/о н/о +22.0 +0.1 23 +21 +21 комфорт 1000.9 +4.7 +22.7
15 21.06 С 3 н/о н/о +13.4 +11.4 88 +12 +12 1003.1 +13.4 +22.7
18 21.06 С 6 н/о н/о +12.3 +10.5 89 +10 +10 1002.8 +12.3 +22.7 3
21 21.06 СЗ 4 н/о н/о +12.5 +11.4 93 +11 +11 1004.9 +11.3 +22.7
00 22.06 ЮЗ 4 н/о н/о +13.0 +11.4 90 +11 +11 1007.6 +11.3 +22.7 18
09 22.06 ЮЗ 2 н/о н/о +14.3 +12.0 86 +14 +14 1013.3 +11.3 +14.3
12 22.06 ЮЗ 3 н/о н/о +14.8 +13.1 90 +14 +14 1011.9 +11.3 +15.3 0.6
15 22.06 ЮЗ 2 н/о н/о +14.3 +13.1 92 +14 +14 1011.7 +14.2 +16.0
18 22.06 Ю 1 н/о н/о +13.9 +12.6 92 +14 +14 1013.1 +13.6 +16.0 1
21 22.06 штиль 0 н/о н/о +10.4 +9.6 95 +10 +10 1012.7 +10.2 +16.0
00 23.06 СВ 1 н/о н/о +8.9 +8.4 97 +8 +8 1011.9 +8.7 +16.0 1
03 23.06 штиль 0 н/о н/о +6.3 +5.8 97 +5 +5 1011.4 +6.3 +16.0
09 23.06 штиль 0 н/о н/о +14.7 +12.4 86 +14 +14 1012.2 +5.1 +14.7
12 23.06 ЮЗ 1 н/о н/о +18.1 +10.8 62 +19 +19 1009.0 +5.1 +18.6 0.4
15 23.06 З 1 н/о н/о +17.4 +11.7 69 +18 +18 1007.7 +17.4 +20.5
18 23.06 штиль 0 н/о н/о +10.5 +9.2 92 +10 +10 1007.9 +10.5 +20.5 0.4
21 23.06 штиль 0 н/о н/о +8.1 +7.5 96 +7 +7 1007.5 +8.0 +20.5
00 24.06 штиль 0 н/о н/о +7.5 +6.9 96 +6 +6 1006.5 +7.4 +20.5 0.4
03 24.06 штиль 0 н/о н/о +6.8 +6.3 97 +6 +6 1006.0 +6.3 +20.5
06 24.06 ЮЗ 1 н/о н/о +8.3 +8.0 98 +7 +7 1007.0 +5.5 0.4

 

Местоположение метеостанции Малмсбери (Южная Африка): широта -33.46 долгота 18.72 высота над уровнем моря 102 м.

В архиве по умолчанию представлена погода в Малмсбери за последнюю неделю. Архивные данные за месяц целиком и за предыдущие месяцы, начиная с января 2011 года, Вы можете получить, выбрав интересующий диапазон дат из раскрывающегося списка и нажав кнопку "Ввод!".


*Определитесь, кто Вы:
робот инопланетянин человек

Внимание! Время в таблицах - всемирное. Для получения местного времени необходимо прибавить поправку, которая равна 2 ч.

Смотрите также архив погоды в соседних городах и на ближайших метеорологических станциях:

Погода в Парле (Южная Африка) (37 км)
Погода на Роббенэйланде (Южная Африка) (50 км)
Погода в Йестерпланте (Южная Африка) (53 км)
Погода в Кейптаун порту (Южная Африка) (56 км)
Погода в Кейптауне аэропорту (Южная Африка) (57 км)
Погода в Кейптауне аэропорту АМС (Южная Африка) (57 км)
Погода в Кейптауне (Южная Африка) (61 км)
Погода в Гилбеке (Южная Африка) (63 км)
Погода в Вустере (Южная Африка) (72 км)
Погода в Лангебаанвеге (Южная Африка) (76 км)

Пояснения к столбцам:

Ветер - указаны скорость ветра в м/с - средняя за 10 мин, порывы в срок и между сроками (в фигурных скобках) и направление, откуда дует ветер: С - северный, СВ - северо-восточный, В - восточный, ЮВ - юго-восточный, Ю - южный, ЮЗ - юго-западный, З - западный, СЗ - северо-западный.
Видимость - горизонтальная дальность видимости в метрах или километрах. При видимости от 1 до 10 км при отсутствии осадков обычно наблюдается дымка, при ухудшении видимости до 1 км и менее - туман. В сухую погоду видимость может ухудшаться дымом, пылью или мглою.
Явления - указаны атмосферные явления, наблюдавшиеся в срок или в последний час перед сроком; фигурными скобками обозначены явления, наблюдавшиеся между сроками (за 1-3 часа до срока); квадратными скобками обозначены град или гололедные отложения с указанием их диаметра в мм.
Облачность - указаны через наклонную черту общая и нижняя облачность в баллах и высота нижней границы облаков в метрах; квадратными скобками обозначены формы облаков: Ci - перистые, Cs - перисто-слоистые, Cc - перисто-кучевые, Ac - высококучевые, As - высокослоистые, Sc - слоисто-кучевые, Ns - слоисто-дождевые, Cu - кучевые, Cb - кучево-дождевые. Подробнее классификацию облаков см. в Атласе облаков (PDF).
T - Температура воздуха - температура, измеренная на высоте 2 м над землей.
Td - Температура точки росы - температура, при понижении до которой содержащийся в воздухе водяной пар достигнет насыщения.
f - Относительная влажность воздуха - влажноcть воздуха, измеренная на высоте 2 м над землей.
Te - Эффективная температура - температура, которую ощущает одетый по сезону человек в тени. Характеристика душности погоды. При расчете учитывается влияние влажности воздуха и скорости ветра на теплоощущения человека.
Tes - Эффективная температура на солнце - температура, которую ощущает человек, с поправкой на солнечный нагрев. Характеристика знойности погоды. Зависит от высоты солнца над горизонтом, облачности и скорости ветра. Ночью, в пасмурную погоду, а также при ветре 12 м/с и более поправка равна нулю.
P - Атмосферное давление - приведенное к уровню моря атмосферное давление.
Po - Атмосферное давление - измеренное на уровне метеостанции атмосферное давление.
Tmin - Минимальная температура - минимум температуры воздуха на высоте 2 м над землей.
Tmax - Максимальная температура - максимум температуры воздуха на высоте 2 м над землей.
R - Количество осадков - Количество выпавших осадков за период времени, мм. При наведении курсора мыши на число - период времени, за который выпало указанное количество осадков.
R24 - Количество осадков - Количество выпавших осадков за 24 часа, мм.
S - Снежный покров - Высота снежного покрова, см. При наведении курсора мыши на число - состояние снежного покрова и степень покрытия местности в баллах.